TimeEST,TemperatureF,Dew PointF,Humidity,Sea Level PressureIn,VisibilityMPH,Wind Direction,Wind SpeedMPH,Gust SpeedMPH,PrecipitationIn,Events,Conditions,WindDirDegrees,DateUTC
12:58 AM,65.5,64.9,98,30.03,10.0,SSE,5.8,-,N/A,,Partly Cloudy,160,2014-02-21 05:58:00
1:58 AM,64.8,64.2,98,30.01,10.0,SSE,4.6,-,N/A,,Scattered Clouds,160,2014-02-21 06:58:00
2:58 AM,63.7,63.7,100,30.01,10.0,South,4.6,-,N/A,,Clear,170,2014-02-21 07:58:00
3:58 AM,63.1,63.1,100,29.98,10.0,South,3.5,-,N/A,,Clear,170,2014-02-21 08:58:00
4:58 AM,63.3,63.3,100,29.98,10.0,SSE,3.5,-,N/A,,Clear,160,2014-02-21 09:58:00
5:58 AM,63.9,63.9,100,29.99,10.0,South,4.6,-,N/A,,Scattered Clouds,170,2014-02-21 10:58:00
6:58 AM,65.7,65.7,100,29.98,10.0,South,9.2,-,N/A,,Clear,180,2014-02-21 11:58:00
7:28 AM,66.2,66.2,100,29.97,10.0,South,10.4,-,N/A,,Mostly Cloudy,180,2014-02-21 12:28:00
7:58 AM,67.6,67.6,100,29.99,4.0,South,10.4,18.4,N/A,,Overcast,190,2014-02-21 12:58:00
8:58 AM,68.7,68.7,100,29.99,10.0,South,9.2,-,N/A,,Overcast,190,2014-02-21 13:58:00
9:58 AM,70.3,70.3,100,29.99,5.0,SSW,16.1,20.7,N/A,,Overcast,200,2014-02-21 14:58:00
10:18 AM,71.6,69.8,94,29.98,4.0,SSW,12.7,18.4,N/A,,Overcast,210,2014-02-21 15:18:00
10:41 AM,71.6,69.8,94,29.98,3.0,SSW,12.7,18.4,N/A,Rain,Light Rain,210,2014-02-21 15:41:00
10:51 AM,71.6,69.8,94,29.98,4.0,SW,10.4,-,N/A,,Overcast,220,2014-02-21 15:51:00
10:55 AM,71.6,69.8,94,29.98,4.0,SW,8.1,-,N/A,Rain,Light Rain,220,2014-02-21 15:55:00
10:58 AM,71.2,70.3,97,29.99,4.0,WSW,9.2,-,0.00,Rain-Thunderstorm,Light Rain,240,2014-02-21 15:58:00
11:00 AM,71.6,69.8,94,30.00,3.0,West,17.3,17.3,N/A,Rain-Thunderstorm,Light Thunderstorms and Rain,260,2014-02-21 16:00:00
11:02 AM,71.6,69.8,94,30.00,0.5,WSW,27.6,42.6,N/A,Fog-Rain-Thunderstorm,Heavy Thunderstorms and Rain,250,2014-02-21 16:02:00
11:04 AM,69.8,69.8,100,30.00,0.5,WNW,17.3,42.6,N/A,Fog-Rain-Thunderstorm,Light Thunderstorms and Rain,290,2014-02-21 16:04:00
11:09 AM,68.0,68.0,100,29.99,0.2,West,19.6,42.6,N/A,Fog-Rain-Thunderstorm,Heavy Thunderstorms and Rain,280,2014-02-21 16:09:00
11:14 AM,66.2,66.2,100,30.01,0.8,West,16.1,29.9,N/A,Rain-Thunderstorm,Heavy Thunderstorms and Rain,280,2014-02-21 16:14:00
11:17 AM,64.4,64.4,100,30.00,5.0,West,12.7,29.9,N/A,Rain,Rain,280,2014-02-21 16:17:00
11:54 AM,62.6,62.6,100,29.99,10.0,South,5.8,-,N/A,Rain-Thunderstorm,Light Thunderstorms and Rain,180,2014-02-21 16:54:00
11:58 AM,63.3,63.3,100,30.00,10.0,South,5.8,-,0.44,Rain-Thunderstorm,Light Thunderstorms and Rain,180,2014-02-21 16:58:00
12:09 PM,62.6,62.6,100,29.98,8.0,SE,5.8,-,N/A,Rain,Rain,140,2014-02-21 17:09:00
12:39 PM,62.6,62.6,100,29.98,10.0,Variable,3.5,-,N/A,Rain,Light Rain,0,2014-02-21 17:39:00
12:42 PM,62.6,62.6,100,29.98,10.0,Variable,3.5,-,N/A,,Overcast,0,2014-02-21 17:42:00
12:58 PM,63.5,63.5,100,29.98,10.0,South,3.5,-,0.06,,Mostly Cloudy,190,2014-02-21 17:58:00
1:28 PM,64.4,64.4,100,29.97,10.0,SSW,9.2,-,N/A,,Scattered Clouds,210,2014-02-21 18:28:00
1:43 PM,64.4,64.4,100,29.96,10.0,SSW,8.1,-,N/A,,Mostly Cloudy,210,2014-02-21 18:43:00
1:48 PM,64.4,64.4,100,29.96,10.0,SW,6.9,-,N/A,,Mostly Cloudy,230,2014-02-21 18:48:00
1:58 PM,64.2,64.2,100,29.97,10.0,SSW,4.6,-,N/A,,Mostly Cloudy,200,2014-02-21 18:58:00
2:08 PM,64.4,64.4,100,29.96,10.0,SSW,9.2,-,N/A,,Overcast,200,2014-02-21 19:08:00
2:13 PM,64.4,64.4,100,29.96,10.0,South,5.8,-,N/A,,Overcast,190,2014-02-21 19:13:00
2:23 PM,64.4,64.4,100,29.96,10.0,SSW,8.1,-,N/A,,Overcast,210,2014-02-21 19:23:00
2:58 PM,65.5,65.5,100,29.98,10.0,SSW,5.8,-,N/A,,Overcast,210,2014-02-21 19:58:00
3:18 PM,66.2,66.2,100,29.97,10.0,Variable,4.6,-,N/A,,Overcast,0,2014-02-21 20:18:00
3:23 PM,66.2,66.2,100,29.96,10.0,SSW,8.1,-,N/A,,Overcast,210,2014-02-21 20:23:00
3:28 PM,66.2,66.2,100,29.96,10.0,South,8.1,-,N/A,,Overcast,190,2014-02-21 20:28:00
3:53 PM,68.0,66.2,94,29.96,10.0,South,8.1,-,N/A,,Overcast,190,2014-02-21 20:53:00
3:58 PM,68.0,66.0,93,29.96,10.0,South,4.6,-,N/A,,Overcast,190,2014-02-21 20:58:00
4:13 PM,68.0,66.2,94,29.95,10.0,SSW,5.8,-,N/A,,Mostly Cloudy,210,2014-02-21 21:13:00
4:18 PM,68.0,66.2,94,29.95,10.0,SSW,8.1,-,N/A,,Mostly Cloudy,210,2014-02-21 21:18:00
4:48 PM,66.2,64.4,94,29.97,10.0,WNW,8.1,-,N/A,,Overcast,300,2014-02-21 21:48:00
4:58 PM,65.3,64.4,97,29.98,10.0,West,6.9,-,N/A,,Overcast,260,2014-02-21 21:58:00
5:58 PM,64.4,60.8,88,29.99,10.0,West,5.8,-,N/A,,Overcast,270,2014-02-21 22:58:00
6:58 PM,63.1,61.2,93,30.00,10.0,West,4.6,-,N/A,,Overcast,270,2014-02-21 23:58:00
7:38 PM,62.6,60.8,94,29.99,10.0,West,4.6,-,N/A,,Overcast,280,2014-02-22 00:38:00
7:58 PM,63.0,61.0,93,30.01,10.0,WSW,5.8,-,N/A,,Overcast,240,2014-02-22 00:58:00
8:28 PM,62.6,60.8,94,30.02,10.0,West,4.6,-,N/A,,Overcast,270,2014-02-22 01:28:00
8:38 PM,62.6,60.8,94,30.01,10.0,NW,4.6,-,N/A,,Overcast,310,2014-02-22 01:38:00
8:58 PM,63.0,60.4,91,30.03,10.0,NNW,1.2,-,N/A,,Overcast,340,2014-02-22 01:58:00
9:58 PM,62.4,57.9,85,30.06,10.0,NW,4.6,-,N/A,,Overcast,320,2014-02-22 02:58:00
10:58 PM,61.5,50.0,66,30.07,10.0,North,2.3,-,N/A,,Overcast,10,2014-02-22 03:58:00
11:58 PM,60.4,49.3,67,30.07,10.0,North,2.3,-,N/A,,Overcast,350,2014-02-22 04:58:00